Search flights

Almeria Airport, Almeria (LEAM)

Meteorología aeropuerto y NOTAMs

METAR for:LEAM (Almería Arpt, AN, ES)
Text:LEAM 242000Z 23003KT 9999 FEW010 26/22 Q1014
Conditions at:2000 UTC 24 Jul 2024
Temperature: 26.0°C ( 79°F)
Dewpoint: 22.0°C ( 72°F) [RH = 79%]
Pressure (altimeter):29.94 inches Hg (1014.0 mb)
Winds:from the SW (230 degrees) at 3 MPH (3 knots; 1.5 m/s)
Visibility:6 or more sm (10+ km)
Ceiling:at least 12,000 feet AGL
Clouds:few clouds at 1000 feet AGL
TAF for:LEAM (Almería Arpt, AN, ES) issued at 1700 UTC 24 Jul 2024
Text:TAF LEAM 241700Z 2418/2518 22005KT CAVOK TX30/2512Z TN24/2506Z
Forecast period:1800 UTC 24 July 2024 to 1800 UTC 25 July 2024
Forecast type:FROM: standard forecast or significant change
Winds:from the SW (220 degrees) at 6 MPH (5 knots; 2.6 m/s)
Visibility:6 or more sm (10+ km)
Clouds:missing
Temperature:MAX 30°C at 1200 UTC 25 Jul 2024
Temperature:MIN 24°C at 0600 UTC 25 Jul 2024

Salidas y llegadas actuales

En este momento no hay salidas ni llegadas a este aeropuerto

Historial de salidas (últimos 12 meses)

Nº vuelo. Destino Aeronave Fecha
FNX207 LEBL PMDG 777-3... 2024-07-09 19:35:13
FNX213 LEMD FNX_320_IA... 2024-07-01 22:20:31
FNX218 LEMD FNX_320_CF... 2024-06-29 08:12:43
FNX406 LEPA FNX_320_CF... 2024-06-27 18:12:47
FNX209 SVMI Boeing B73... 2024-06-12 23:48:38
FNXEVNT-CANARY01 GCXO PMDG 737-8... 2024-06-01 15:59:25
FNXEVNT-CANARY01 GCXO PMDG 737-8... 2024-06-01 14:58:05
FNXEVNT-CANARY01 GCXO FNX_320_CF... 2024-06-01 15:33:33
FNXEVNT-CANARY01 GCXO FNX_320_CF... 2024-06-01 14:52:20
FNXEVNT-CANARY01 GCXO FNX_320_IA... 2024-06-01 14:54:29
FNXEVNT-CANARY01 GCXO B737-800X... 2024-06-01 14:08:09
FNXEVNT-CANARY01 GCXO PMDG 737-8... 2024-06-01 15:17:29
FNXEVNT-CANARY01 GCXO PMDG 737-8... 2024-06-01 14:50:55
FNXEVNT-CANARY01 GCXO PMDG 737-8... 2024-06-01 15:00:41
FNX209 LICJ B737-800X... 2024-05-31 11:33:11
FNX102 LICJ PMDG 737-8... 2024-05-31 14:29:50
FNX102 LEVX PMDG 737-8... 2024-05-29 19:35:22
FNX209 LEIB Boeing B73... 2024-05-26 20:10:03
FNXIE25 GCFV PMDG 737-8... 2024-05-25 07:03:43
FNX105 GCXO FBW_A320ne... 2024-05-12 05:37:33
FNXIE25 GCFV PMDG 737-8... 2024-04-30 21:03:38
FNX12LIG LEBB Fenix A320... 2024-04-05 09:36:29
FNXIVFR09 LELH Cessna Sky... 2024-03-28 10:42:10
FNX211 LIRN PMDG 737-8... 2024-03-27 11:19:04
FNXTVE18 LEGR Blackwing... 2024-03-22 15:14:12
FNX209 EGGD Tolis a321... 2024-02-28 12:03:57
FNX205 LEIB PMDG 737-8... 2024-02-13 17:55:35
FNX302 LEIB PMDG 737-8... 2024-02-06 15:58:16
FNX12LIG LEBB PMDG 737-8... 2024-02-04 17:40:31
FNX101 LEVX PMDG 737-8... 2024-01-31 18:59:26
FNX302 LFKC PMDG 737-8... 2024-01-12 17:25:16
FNX403 LEZL PMDG 737-8... 2024-01-11 13:43:45
FNX207 LEVX PMDG 737-8... 2023-12-28 08:21:14
FNX207 LEAL Cessna Sky... 2023-09-03 17:38:54

Historial de llegadas (últimos 12 meses)

Nº vuelo. Origen Aeronave Fecha
FNXBSNS19 LECH LONGITUDE_... 2024-07-24 18:57:34
FNX1186 LEPA B737-800X... 2024-07-18 19:34:06
FNX105 LEPA FBW_A320ne... 2024-07-13 06:29:01
FNX213 LEBL FNX_320_IA... 2024-07-01 17:28:19
FNX406 LEMD FNX_320_CF... 2024-06-27 12:33:24
FNX218 LEMD FNX_320_CF... 2024-06-27 10:59:32
FNX209 LEMG B737-800X... 2024-06-11 23:20:53
FNX207 LEIB PMDG 737-8... 2024-06-08 19:36:48
FNX211 LIEE PMDG 737-8... 2024-06-01 13:07:53
FNX102 LEMD PMDG 737-8... 2024-06-01 10:55:11
FNX311 LOWI PMDG 737-8... 2024-05-31 17:14:12
FNX213 LKPR FNX_320_IA... 2024-05-31 01:24:00
FNX209 LEMD B737-800X... 2024-05-31 22:57:03
FNX102 LEVX PMDG 737-8... 2024-05-30 21:45:10
FNXIE24 LEPA PMDG 737-8... 2024-05-24 19:49:17
FNX102 LEMD PMDG 737-8... 2024-05-24 19:09:14
FNX209 LEIB CRJ-200 v.... 2024-05-22 11:09:38
FNXIE24 LEPA PMDG 737-8... 2024-04-30 13:12:00
FNX11LIG LEBB Fenix A320... 2024-04-05 08:35:04
FNXIVFR08 LEJE Cessna Sky... 2024-03-28 10:11:59
FNX211 LEMH PMDG 737-8... 2024-03-26 21:43:30
FNXTVE17 LEAL Blackwing... 2024-03-21 15:51:00
FNX209 LEIB B737-800X... 2024-02-28 09:04:41
FNX302 GCLP PMDG 737-8... 2024-02-05 21:02:53
FNX211 GCLP PMDG 737-8... 2024-02-05 20:51:55
FNX11LIG LEBB PMDG 737-8... 2024-02-04 17:20:48
FNX400 LEIB FenixA320... 2024-01-24 01:06:04
FNX302 GCRR PMDG 737-8... 2024-01-12 16:41:48
FNX403 LEPA PMDG 737-8... 2024-01-08 19:45:52
FNX207 LEMH PMDG 737-8... 2024-01-03 19:26:22
FNX207 LEMH PMDG 737-8... 2023-12-27 09:40:18
FNX211 LICR PMDG 737-8... 2023-12-26 11:48:33

Información de pista (Elevación del aeropuerto: 70ft)

Pista 07 Longitud 10,480ft Anchura 146ft Elevación 48ft Superficie Bituminous Rumbo 73
Pista 25 Longitud 10,480ft Anchura 146ft Elevación 48ft Superficie Bituminous Rumbo 253

Frecuencias del aeropuerto

Tipo APP/DEP Frecuencia 118.350 Mhz
Tipo ATIS Frecuencia 119.055 Mhz
Tipo Ground Frecuencia 121.705 Mhz
Tipo Tower Frecuencia 118.350 Mhz
Tipo Tower Frecuencia 121.705 Mhz
Tipo ATIS Frecuencia 119.050 Mhz
Tipo Ground Frecuencia 121.700 Mhz

Radioayudas del aeropuerto

Tipo NDB Identif. AM Frecuencia 284 Khz
Tipo NDB Identif. AMN Frecuencia 310 Khz
Tipo VOR-DME Identif. AMR Frecuencia 114100 Khz